星链-37441(STARLINK-37441)
导读
STARLINK-37441(NORAD编号68858)是美国SpaceX公司星链(Starlink)星座中的一颗低轨互联网通信卫星。星链计划旨在构建覆盖全球的天基高速互联网系统,总规划规模近4.2万颗卫星,多部署在550公里左右的近地轨道。 作为星链星座的组成部分,该卫星承担着为全球用户提供宽带互联网接入服务的功能,尤其可为偏远地区、海洋等缺乏地面基础设施的区域提供网络连接支持。这类低轨卫星具有时延低、覆盖广的特点,是SpaceX推进全球卫星互联网组网的重要单元。
Basic Information
目录编号:
68858
目录名称:
STARLINK-37441
国际标识:
2026-094V
轨道中心:
EARTH
卫星名称:
星链-37441
卫星全名:
星链-37441(STARLINK-37441)
卫星状态:
在轨 (已飞行138 天)
发射日期:
2026-04-26 UTC
国别 :
美国
(US)
星等 :
--
This satellite is enrolled in the Space Conjunction Data Service (SCDS) and the current flight risk assessment level is: No High Risk
Orbit Information
| 数据来源 | 国际轨道数据 | AOE轨道数据 |
| 星历时间 | 2026-09-11T20:20:08+0800 9小时前 查看轨道信息 | 2026-09-07T08:00:00+0800 4天前 查看轨道信息 |
| 半长轴 | 6843.63km | 6843.75km |
| 偏心率 | 0.0000781 | 0.0002024 |
| 轨道倾角 | 97.282° | 97.283° |
| 近地点辐角 | 7.542° | 88.675° |
| 升交点赤经 | 267.814° | 263.365° |
| 平近点角 | 352.583° | 208.653° |
| 近地点 | 464.958km | 464.227km |
| 远地点 | 466.028km | 466.999km |
| 周期 | 93.905分钟 | 93.908分钟 |
| 每日圈数 | 15.334619 | 15.334218 |
Detailed Information
固有亮度:
5
最大亮度:
2.5
卫星平台:
Starlink V1.0
覆盖范围:
全球
运营商:
太空探索技术公司
运营商所在国:
美国
制造商(研发单位):
太空探索技术公司
制造商所在国:
美国
使用方式:
暂无
Satellite Introduction
Starlink 计划是 SpaceX 推出的全球卫星互联网项目,通过发射低轨道卫星,为全球尤其是偏远地区提供高速、低延迟的互联网服务。自 2019 年起,Starlink 已部署数千颗卫星,旨在缩小全球数字鸿沟,推动互联网普及。该项目还为军事、航空等行业提供通信支持,带来广泛经济效益。
2D Orbit Map
3D Orbit Map
Orbit Altitude Analysis Chart
Orbit Inclination Analysis Chart
Orbit Comprehensive Analysis Chart
View Comprehensive ChartConjunction Data List
| Event ID | Objects | TCA | Miss Dist (km) | Collision Risk Probability | Collision Risk Index (CRI) | Action |
|---|---|---|---|---|---|---|
| CDM_260911-230406-350106-885821 |
STARLINK-33837
(63501)
STARLINK-37441
(68858) | 2026-09-11T 23:04:02+0000 |
1.811 km
极远距离 | 3.066801E-6 低风险 | 0.45 | |
| CDM_260911-230405-265706-885821 |
STARLINK-4084
(52657)
STARLINK-37441
(68858) | 2026-09-11T 23:04:11+0000 |
2.901 km
极远距离 | 1.292237E-6 低风险 | 0.37 | |
| CDM_260912-141605-199506-885822 |
STARLINK-3636
(51995)
STARLINK-37441
(68858) | 2026-09-12T 14:16:21+0000 |
2.940 km
极远距离 | 8.450964E-7 极低风险 | 0.34 |
Miss Distance Evolution Trend with All Objects
Collision Probability Evolution Trend with All Objects

